Regional Weather Roundup
Issued by NWS

Home | Current Version | Previous Version | Graphics & Text | Print | Product List | Glossary On
Versions: 1 2 3 4 5 6 7 8 9 10 11 12 13 14 15 16 17 18 19 20 21 22 23 24 25 26 27 28 29 30 31 32 33 34 35 36 37 38 39 40 41 42 43 44 45 46 47 48 49 50
000
ASUS45 KTFX 281119
RWRMT
MONTANA HOURLY WEATHER ROUNDUP
NATIONAL WEATHER SERVICE GREAT FALLS MT
419 AM MST SAT FEB 28 2015

NOTE: "FAIR" INDICATES FEW OR NO CLOUDS BELOW 12000 FEET WITH NO
SIGNIFICANT WEATHER AND/OR OBSTRUCTIONS TO VISIBILITY.

* THESE STATIONS ARE NOT UNDER NWS QUALITY CONTROL. THEY DO NOT
   REPORT WEATHER SUCH AS PRECIPITATION OR FOG.

MTZ001>007-043-281200-
WEST OF THE DIVIDE
CITY           SKY/WX    TMP DP  RH WIND       PRES   REMARKS
KALISPELL      CLEAR     19   7  59 N9        30.08R WCI   8
MISSOULA       CLOUDY    21   5  50 E16       30.03S WCI   7
BUTTE          CLOUDY    10   7  88 W3        29.91S
MULLAN PASS    PTCLDY    10   7  88 E8        29.81S WCI  -2
* ANACONDA     PTCLDY    10   3  73 N11        N/A   WCI  -4
* ESSEX        N/A        9   2  73 S2G8       N/A
* EUREKA APT   CLEAR     14   7  73 CALM      30.13R
* HAMILTON APT MOCLDY    23   7  50 N9        29.95R WCI  13
* LIBBY APT    CLEAR     18   7  62 SE6       30.11R WCI  10
* LINCOLN      N/A       11   2  67 NE8G18     N/A   WCI  -1
* LOOKOUT PASS N/A       19   8  62 S4G9       N/A
* POLSON       N/A       20   3  47 N2G9       N/A
* RONAN APT    PTCLDY    25   7  46 E7         N/A   WCI  17
* SEELEY LAKE  N/A        7   1  76 NE1        N/A
* THOMP F APT  PTCLDY    15   5  64 N4G15      N/A
* YAAK HILL    N/A       25   5  42 NE1        N/A
$$

MTZ008-052>055-281200-
SOUTHWEST MONTANA
CITY           SKY/WX    TMP DP  RH WIND       PRES   REMARKS
BOZEMAN        CLOUDY    12  10  92 W3        29.99S
DILLON         CLOUDY    14   7  73 NE16      29.89R WCI  -2
* W YELLOWSTON PTCLDY   N/A N/A N/A N/A        N/A
* THREE FORKS  PTCLDY    16   7  67 N/A        N/A
* BOULDER HILL N/A        7   2  80 N12        N/A   WCI  -9
* MONIDA PASS  N/A        9   6  87 N5         N/A
* RAYNOLDS PAS N/A        5 -37  12 N9         N/A   WCI  -9
* WHITEHALL    N/A       15   5  64 NE7G14     N/A   WCI   5
* WISE RIVER   N/A       14   2  59 E10G17     N/A   WCI   1
$$

MTZ009>010-012-014-046-048-049-054-281200-
EAST SLOPES AND CENTRAL MONTANA
CITY           SKY/WX    TMP DP  RH WIND       PRES   REMARKS
CUT BANK       CLEAR      3   0  87 N7        30.11R WCI  -9
GREAT FALLS    CLOUDY    12   7  80 N7        30.11S WCI   1
HELENA         CLOUDY    16   9  74 W7        30.08R WCI   6
MALMSTROM AFB  LGT SNOW  12   9  88 N6        30.14R WCI   2
* CONRAD       PTCLDY     9   3  76 CALM       N/A
* DEARBORN     N/A       16  11  81 N8         N/A   WCI   5
* EAST GLACIER N/A        8   3  80 SE2        N/A
* MONARCH      N/A        7   3  83 NW5        N/A   WCI  -2
* PENDROY      N/A       10   8  92 VRB9G16    N/A   WCI  -3
* ROGERS PASS  N/A        7   4  87 S4         N/A
* SWEET GRASS  N/A        7   5  91 NW9        N/A   WCI  -6
* WHITE SULPH  N/A        2  -3  79 E4         N/A
$$

MTZ011-013-016-021-035-040-045-047-050-051-281200-
NORTH CENTRAL MONTANA
CITY           SKY/WX    TMP DP  RH WIND       PRES   REMARKS
HAVRE          CLOUDY     9   5  84 W9        30.18S WCI  -4
LEWISTOWN      LGT SNOW  10   7  88 W7        30.06S WCI  -1
* N BAR RANCH  CLOUDY    10   3  73 NW17G26   30.01R WCI  -8
* CHINOOK      PTCLDY    10   5  80 W10       30.19R WCI  -4
* FORT BENTON  PTCLDY    14   9  80 SW6       30.19R WCI   5
* CHESTER      N/A        5   0  80 N1         N/A
* DENTON       N/A       10   6  84 W4         N/A
* GEYSER       N/A       12   9  88 W13        N/A   WCI  -3
* JUDITH GAP   N/A        8   7  96 NW13       N/A   WCI  -8
* LOMA         N/A       14  10  84 W7         N/A   WCI   4
$$

MTZ017>020-022>027-061-062-281200-
NORTHEAST MONTANA
CITY           SKY/WX    TMP DP  RH WIND       PRES   REMARKS
GLASGOW        CLOUDY    10   1  67 NW3       30.13S
GLENDIVE       CLEAR      5  -2  72 NW14      30.10R WCI -12
JORDAN         PTCLDY    12   7  80 W6        30.12S WCI   2
SIDNEY         PTCLDY     5   0  80 NW7       30.15R WCI  -7
WOLF POINT     PTCLDY     3   0  87 W6        30.16R WCI  -8
* BEAVER HILL  N/A        5   2  87 W7         N/A   WCI  -7
* CIRCLE       N/A        9   4  80 NW3G8      N/A
* LINDSAY DVD  N/A        1  -3  83 W13        N/A   WCI -17
* NAVAJO       N/A        0  -4  83 NW9        N/A   WCI -15
* POPLAR APT   PTCLDY     3  -2  79 W6        30.16R WCI  -8
* SACO         N/A       12   8  84 W7         N/A   WCI   1
* SCOBEY APT   PTCLDY     3  -9  57 N/A        N/A
$$

MTZ028>042-056>058-281200-
SOUTHCENTRAL AND SOUTHEAST MONTANA
CITY           SKY/WX    TMP DP  RH WIND       PRES   REMARKS
BAKER          CLEAR      7   1  76 NW9       30.03R WCI  -6
BILLINGS       CLOUDY    16   9  74 CALM      30.07R
LIVINGSTON     LGT SNOW  16   9  74 CALM      29.98S
MILES CITY     MOCLDY     7   1  76 NW8       30.12R WCI  -6
* BIG TIMBER A PTCLDY    12   9  88 N8        30.01S
* FORSYTH APT  CLEAR     12   3  67 NW5       30.13R WCI   4
* LAUREL APT   CLEAR     16   7  67 N/A        N/A
* ROUNDUP APT  CLEAR     14   1  56 N/A        N/A
* ALZADA       N/A        5   1  83 W3         N/A
* HYSHAM       N/A       12   7  80 NW1        N/A
* LAME DEER    N/A        9   5  84 W6         N/A   WCI  -1
* REED POINT   N/A       14   9  80 E7         N/A   WCI   4
$$

REGIONAL REPORTS...DAKOTAS
CITY           SKY/WX    TMP DP  RH WIND       PRES   REMARKS
WILLISTON      CLOUDY     7   0  73 N10       30.09R WCI  -7
DICKINSON      CLEAR      7   1  76 W9        29.97S WCI  -6
BEACH          CLOUDY     9   7  91 W12       30.04R WCI  -6
CROSBY         CLOUDY     0  -4  83 NW14      30.11R WCI -19
TIOGA          CLOUDY     3   1  91 CALM      30.07R
WATFORD CITY   CLOUDY     9   3  76 NW8       30.04R WCI  -3
BISMARCK       PTCLDY     9   1  70 SE8       30.07F WCI  -3
GRAND FORKS    MOCLDY     1  -4  79 S15       30.24F WCI -18
FARGO          MOCLDY     7  -2  66 S14       30.28F WCI -10
BUFFALO SD     CLEAR      9   3  76 W10       29.94R WCI  -5
RAPID CITY     CLEAR      7   1  76 CALM      30.01R
$$

REGIONAL REPORTS...WYOMING/IDAHO/WASHINGTON
CITY           SKY/WX    TMP DP  RH WIND       PRES   REMARKS
GILLETTE       MOCLDY     9   5  84 NW9       30.00R WCI  -4
SHERIDAN       CLOUDY    14   5  67 W12       30.04S
CODY           PTCLDY     7   5  91 NE6       29.94R WCI  -4
YELLOWSTONE LA MOCLDY   -11 -17  74 CALM      29.77S
SALMON         PTCLDY    28  12  51 SE12      29.84R WCI  18
MULLAN PASS    PTCLDY    10   7  88 E8        29.81S WCI  -2
SAND POINT     CLEAR     30   5  34 NE23G30   30.05R WCI  17
SPOKANE        CLEAR     30   9  41 NE15      29.96R WCI  19
$$

REGIONAL REPORTS...ALBERTA
CITY           SKY/WX    TMP DP  RH WIND       PRES   REMARKS
LETHBRIDGE     LGT SNOW  10   9  96 W8        30.17S WCI  -2
MEDICINE HAT   LGT SNOW  10   7  88 SW5       30.21S WCI   1
EDMONTON       FAIR       7   0  73 W8        30.14F WCI  -6
WATERTON GATE  N/A        0  -4  83 SW3        N/A
CARDSTON       N/A        9   7  91 SW5        N/A
MILK RIVER     N/A        0  -4  83 W7         N/A   WCI -13
$$

REGIONAL REPORTS...SASKATCHEWAN
CITY           SKY/WX    TMP DP  RH WIND       PRES   REMARKS
SWIFT CURRENT  LGT SNOW   5   3  91 NW13      30.10R WCI -12
REGINA         N/A      -13 -18  78 NW6       30.12R WCI -27
VAL MARIE      N/A        9   3  76 NW15G21    N/A   WCI  -8
ASSINIBOIA     N/A        5   1  83 NW12       N/A   WCI -11
CORONACH       N/A        5   1  83 NW7        N/A   WCI  -7

$$




USA.gov is the U.S. government's official web portal to all federal, state and local government web resources and services.